Terminal Aerodrome Forecast
Issued by NWS

Home | Current Version | Previous Version | Graphics & Text | Print | Product List | Glossary On
Versions: 1 2 3 4 5 6 7 8 9 10 11 12 13 14 15 16 17 18 19 20 21 22 23 24 25 26 27 28 29 30 31 32 33 34 35 36
000
FTUS43 KLOT 031937 AAA
TAFMDW
TAF AMD
KMDW 031937Z 0320/0418 26011G17KT P6SM SCT040 BKN050
     FM032300 29010KT P6SM VCTS SCT030 BKN050CB BKN250
     FM040030 04009KT P6SM VCTS SCT020 BKN040CB
     FM040200 03005KT 6SM BR SCT020 BKN040
     FM041400 07006KT P6SM SCT050=

USA.gov is the U.S. government's official web portal to all federal, state and local government web resources and services.